"Pseudo-MPEC" for A11F769

Created 2026 Jul 26 18:35:03 UT using Find_Orb

Click here for an explanation of pseudo-MPECs

 
 Astrometry: 
     A11F769*0C2026 07 26.12846100 27 11.774-35 41 11.04   ~7Q9K 19.21oVNEOCPM22
     A11F769 0C2026 07 26.13254100 27 18.614-35 42 07.24   ~7Q9Kx19.23oVNEOCPM22
     A11F769 0C2026 07 26.13794600 27 27.206-35 43 16.10   ~7Q9K 19.10oVNEOCPM22
     A11F769 0C2026 07 26.17387700 28 27.694-35 51 10.76   ~7Q9K 19.25oVNEOCPM22

Station data:
(M22) ATLAS South Africa, Sutherland  (S32.380156 E20.810590)  South Africa.
   Observers L. Denneau, R. Siverd, J. Tonry, H. Weiland. Measurers L.
   Denneau, N. Erasmus, A. Fitzsimmons, J. Robinson, R. Siverd, J. Tonry, H.
   Weiland. 0.5-m f/2.0 Schmidt + CCD.

Orbital elements:  A11F769
   Perihelion 2026 Oct 9.536020 +/- 35.7 TT = 12:51:52.0 (JD 2461323.036020)
Epoch 2026 Jul 26.0 TT = JDT 2461247.5   Earth MOID: 0.0027   Me: 0.0740
M 249.465237783 +/- 35              (J2000 ecliptic)             AutoNEOCP
n   1.463338456 +/- 0.208           Peri.  149.235855 +/- 3.9
a   0.768374349 +/- 0.074           Node   304.835771 +/- 1.6
e   0.49813043 +/- 0.343            Incl.   14.398552 +/- 18
P   0.674/246.008d         H 26.94  G  0.15   U 11.7
q 0.385623703 +/- 0.304    Q 1.151124995 +/- 0.158
3 of 4 observations 2026 July 26 (65.4 min); mean residual 0".01
Residuals in arcseconds: 
260726 M22  .02-  .02+    260726 M22  .02-  .02+    
260726 M22( 2.7+  2.4-)   260726 M22  .00   .00     

Ephemerides (geocentric):
Date (UTC) HH   RA             Dec           delta  r     elong  mag " sig PA
---- --------  ------------   ------------  ------ ------ -----  --- --------
2026 07 26 19  01 03 42.258   -39 20 42.34  .00784 1.0192 117.2 18.7 2612  98
2026 07 26 20  01 07 48.228   -39 41 35.06  .00754 1.0189 116.5 18.6 2973  97
2026 07 26 21  01 12 17.648   -40 03 36.05  .00723 1.0187 115.7 18.5 3382  97
2026 07 26 22  01 17 13.805   -40 26 47.39  .00693 1.0185 114.8 18.5 3846  97
2026 07 26 23  01 22 40.569   -40 51 10.02  992211 1.0182 113.8 18.4 4375  97
2026 07 27 00  01 28 42.518   -41 16 43.05  947938 1.0180 112.8 18.3 4979  96
2026 07 27 01  01 35 25.070   -41 43 22.77  904125 1.0178 111.6 18.3 5673  96
2026 07 27 02  01 42 54.652   -42 11 01.28  860844 1.0175 110.3 18.2 6472  95
2026 07 27 03  01 51 18.873   -42 39 24.45  818180 1.0173 108.9 18.1 7395  94
2026 07 27 04  02 00 46.715   -43 08 09.10  776235 1.0171 107.3 18.1 8466  93
2026 07 27 05  02 11 28.693   -43 36 38.88  735133 1.0168 105.5 18.0 9711  92
2026 07 27 06  02 23 36.935   -44 03 58.76  695022 1.0166 103.5 18.0 186'  90
2026 07 27 07  02 37 25.090   -44 28 47.46  656087 1.0164 101.2 17.9 214'  89
2026 07 27 08  02 53 07.864   -44 49 07.79  618550 1.0161  98.7 17.9 247'  86
2026 07 27 09  03 10 59.952   -45 02 15.33  582682 1.0159  95.8 17.9 285'  84
2026 07 27 10  03 31 14.010   -45 04 27.06  548812 1.0156  92.6 17.9 330'  81
2026 07 27 11  03 53 57.397   -44 50 54.19  517333 1.0154  88.9 17.9 381'  77
2026 07 27 12  04 19 07.752   -44 15 47.02  488708 1.0152  84.8 17.9 438'  73
2026 07 27 13  04 46 28.318   -43 12 42.40  463470 1.0149  80.2 18.0 502'  69
2026 07 27 14  05 15 25.073   -41 35 43.32  442198 1.0147  75.1 18.2 569'  64
2026 07 27 15  05 45 08.279   -39 20 48.54  425489 1.0145  69.6 18.4 638'  59
2026 07 27 16  06 14 39.665   -36 27 29.30  413899 1.0142  63.8 18.7 702'  55
2026 07 27 17  06 43 03.218   -32 59 50.49  407865 1.0140  57.7 19?? 757'  51
2026 07 27 18  07 09 34.986   -29 06 17.11  407633 1.0138  51.7 19?? 795'  48
2026 07 27 19  07 33 48.012   -24 57 59.62  413215 1.0135  46.0 20?? 814'  45
2026 07 27 20  07 55 31.826   -20 46 35.72  424380 1.0133  40.7 21?? 811'  42
2026 07 27 21  08 14 48.531   -16 42 05.63  440704 1.0130  36.0 21?? 789'  41
2026 07 27 22  08 31 48.055   -12 51 41.52  461639 1.0128  32.0 22?? 751'  39
2026 07 27 23  08 46 44.152   -09 19 36.59  486589 1.0126  28.8 23?? 703'  38
2026 07 28 00  08 59 51.665   -06 07 34.10  514971 1.0123  26.4 23?? 651'  37
2026 07 28 01  09 11 24.931   -03 15 31.29  546248 1.0121  24.8 24?? 597'  37
2026 07 28 02  09 21 36.991   -00 42 21.00  579952 1.0119  23.8 24?? 545'  36
2026 07 28 03  09 30 39.305   +01 33 36.58  615684 1.0116  23.3 25?? 497'  35
2026 07 28 04  09 38 41.740   +03 34 12.78  653110 1.0114  23.1 25?? 453'  35
2026 07 28 05  09 45 52.697   +05 21 17.88  691954 1.0111  23.3 25?? 413'  35
2026 07 28 06  09 52 19.282   +06 56 34.52  731991 1.0109  23.6 25?? 378'  34
2026 07 28 07  09 58 07.492   +08 21 34.82  773035 1.0107  24.1 25?? 347'  34
2026 07 28 08  10 03 22.390   +09 37 39.68  814933 1.0104  24.7 25?? 319'  33
2026 07 28 09  10 08 08.252   +10 45 59.22  857560 1.0102  25.3 25?? 295'  33
2026 07 28 10  10 12 28.703   +11 47 33.74  900812 1.0100  25.8 25?? 273'  33
2026 07 28 11  10 16 26.825   +12 43 14.94  944603 1.0097  26.4 25?? 254'  32
2026 07 28 12  10 20 05.245   +13 33 47.01  988862 1.0095  27.0 25?? 237'  32
2026 07 28 13  10 23 26.214   +14 19 47.79  .00691 1.0092  27.6 25?? 222'  32
2026 07 28 14  10 26 31.666   +15 01 49.68  .00721 1.0090  28.1 25?? 208'  31
2026 07 28 15  10 29 23.270   +15 40 20.49  .00751 1.0088  28.6 25?? 196'  31
2026 07 28 16  10 32 02.473   +16 15 44.18  .00782 1.0085  29.1 25?? 185'  31
2026 07 28 17  10 34 30.534   +16 48 21.41  .00812 1.0083  29.5 25?? 176'  30
2026 07 28 18  10 36 48.549   +17 18 30.07  .00843 1.0080  30.0 25?? 167'  30